Regional Weather Roundup
Issued by NWS

Home | Current Version | Previous Version | Text Only | Print | Product List | Glossary On
Versions: 1 2 3 4 5 6 7 8 9 10 11 12 13 14 15 16 17 18 19 20 21 22 23 24 25 26 27 28 29 30 31 32 33 34 35 36 37 38 39 40 41 42 43 44 45 46 47 48 49 50
000
ASUS43 KOAX 282002
RWRNE

WEATHER ROUNDUP FOR NEBRASKA
NATIONAL WEATHER SERVICE OMAHA NE
300 PM CDT SUN MAY 28 2017

NOTES: SATELLITE DATA IS BEING USED TO AUGMENT CLOUD COVER ABOVE
       12000 FEET.
       "FAIR" INDICATES FEW OR NO CLOUDS BELOW 12,000 FEET WITH NO
       SIGNIFICANT WEATHER AND/OR OBSTRUCTIONS TO VISIBILITY.

  * THESE STATIONS DO NOT REPORT WEATHER SUCH AS RAIN...SNOW OR FOG.

NEZ001>004-019>022-054>056-282100-
NEBRASKA PANHANDLE

CITY           SKY/WX    TMP DP  RH WIND       PRES   REMARKS
SCOTTSBLUFF    MOSUNNY   73  40  30 NW17G26   30.14F
ALLIANCE       PTSUNNY   70  44  39 NW15G24   30.12F
CHADRON        MOSUNNY   71  47  42 NW8       30.07F
GORDON         MOCLDY    68  40  35 NW6       30.09F
KIMBALL        MOSUNNY   70  35  27 NW14G26   30.20F
SIDNEY         MOSUNNY   72  41  32 NW16G29   30.17F
$$

NEZ057>060-069>072-079>082-282100-
SOUTHWEST NEBRASKA

CITY           SKY/WX    TMP DP  RH WIND       PRES   REMARKS
NORTH PLATTE   CLOUDY    74  46  36 NW13G21   30.06S
IMPERIAL       MOSUNNY   79  35  20 NW16G25   30.10F
LEXINGTON      PTSUNNY   75  41  29 NW13G18   30.04S
MCCOOK         MOSUNNY   80  40  23 NW17G23   30.06F
OGALLALA       CLOUDY    75  43  32 W14G20    30.11S
$$

NEZ005>010-023>029-035>040-094-282100-
NORTH CENTRAL NEBRASKA

CITY           SKY/WX    TMP DP  RH WIND       PRES   REMARKS
VALENTINE      SUNNY     74  31  20 W15G24    30.03F
AINSWORTH      MOSUNNY   73  40  30 NW16G26   30.03F
BROKEN BOW     MOSUNNY   78  40  25 NW23G33   30.02F
O`NEILL        SUNNY     74  34  22 NW25G31   29.99F
ORD            MOSUNNY   75  40  28 NW20G28   29.99S
THEDFORD       MOSUNNY   74  41  30 N18G25    30.07S
$$

NEZ041-046>049-061>064-073>077-083>087-282100-
SOUTH CENTRAL NEBRASKA

CITY           SKY/WX    TMP DP  RH WIND       PRES   REMARKS
GRAND ISLAND   MOSUNNY   81  43  26 NW25G32   29.98F
AURORA         MOSUNNY   82  38  20 NW24G33   29.97S
HASTINGS       MOSUNNY   80  40  23 N16G26    30.00F
HEBRON         MOSUNNY   79  40  24 NW15G21   29.97F
HOLDREGE       CLOUDY    76  40  27 NW14G21   30.03F
KEARNEY *      MOSUNNY   79  37  22 NW16G28   30.01F
YORK           SUNNY     81  43  26 NW23      29.95S
$$

NEZ011>018-030>034-042>045-282100-
NORTHEAST NEBRASKA

CITY           SKY/WX    TMP DP  RH WIND       PRES   REMARKS
NORFOLK        MOSUNNY   76  40  27 NW20G28   29.94S
ALBION         SUNNY     75  42  30 NW16G25   29.98R
BLAIR          MOSUNNY   80  41  25 NW18G30   29.88S
FREMONT        MOSUNNY   80  44  27 NW26G35   29.91R
TEKAMAH        MOSUNNY   81  39  22 NW21G35   29.88R
WAYNE          SUNNY     76  41  28 NW22G30   29.92F
$$

NEZ050>053-065>068-078-088>093-282100-
SOUTHEAST NEBRASKA

CITY           SKY/WX    TMP DP  RH WIND       PRES   REMARKS
LINCOLN        MOSUNNY   84  40  21 W17G31    29.91F
OMAHA EPPLEY   MOSUNNY   82  43  25 NW15G30   29.86F
BEATRICE       PTSUNNY   78  45  30 NW17      29.95F
FALLS CITY     MOSUNNY   78  50  37 W16G23    29.93F
NEBRASKA CITY  MOSUNNY   79  39  23 W12G21    29.92F
PLATTSMOUTH    PTSUNNY   80  44  27 W8        29.90S
$$

NEZ044-045-051>053-067-282100-
OMAHA AREA

CITY           SKY/WX    TMP DP  RH WIND       PRES   REMARKS
OMAHA EPPLEY   MOSUNNY   82  43  25 NW15G30   29.86F
BLAIR          MOSUNNY   80  41  25 NW18G30   29.88S
FREMONT        MOSUNNY   80  44  27 NW26G35   29.91R
MILLARD        MOSUNNY   82  47  29 W21G28    29.87F
OFFUTT AFB     MOSUNNY   78  46  31 W12       29.87F
PLATTSMOUTH    PTSUNNY   80  44  27 W8        29.90S
WAHOO          FAIR      81  40  23 NW22G31   29.90S
$$




USA.gov is the U.S. government's official web portal to all federal, state and local government web resources and services.